Date,TemperatureHighF,TemperatureAvgF,TemperatureLowF,DewpointHighF,DewpointAvgF,DewpointLowF,HumidityHigh,HumidityAvg,HumidityLow,PressureMaxIn,PressureMinIn,WindSpeedMaxMPH,WindSpeedAvgMPH,GustSpeedMaxMPH,PrecipitationSumIn
2012-1-1,46,40,36,41,37,31,94,87,75,30.36,29.87,17,8,30,0.03
2012-1-2,38,29,20,31,24,17,89,79,67,30.14,29.92,10,6,21,0.00
2012-1-3,20,12,6,17,8,3,89,86,80,30.57,30.13,9,5,21,0.00
2012-1-4,26,16,6,20,10,3,90,80,67,30.58,30.21,10,4,18,0.00
2012-1-5,30,28,26,27,24,20,92,86,76,30.21,30.12,7,3,15,0.00
2012-1-6,50,38,30,37,31,25,85,75,61,30.13,29.93,11,4,16,0.00
2012-1-7,49,41,36,39,34,30,84,76,65,30.32,29.95,8,2,18,0.00
2012-1-8,36,29,21,30,24,18,90,82,76,30.65,30.32,8,3,18,0.00
2012-1-9,39,31,21,25,23,19,89,73,52,30.63,30.18,9,5,16,0.00
2012-1-10,37,35,33,34,29,25,89,79,72,30.31,30.11,7,2,13,0.00
2012-1-11,44,36,29,34,30,26,91,80,67,30.31,30.00,14,5,23,0.17
2012-1-12,42,39,35,40,37,33,93,92,91,30.00,29.64,10,6,23,0.37
2012-1-13,41,28,19,40,26,17,98,93,91,30.03,29.48,11,6,25,0.45
2012-1-14,23,17,9,21,14,6,92,90,88,30.51,30.03,7,4,15,0.00
2012-1-15,12,3,-7,9,0,-10,90,88,87,30.97,30.51,6,2,11,0.03
2012-1-16,32,19,1,29,14,-1,91,81,69,30.95,30.31,16,9,28,0.00
2012-1-17,42,36,31,40,34,28,94,91,88,30.31,29.72,13,9,19,0.37
2012-1-19,26,24,18,22,18,11,90,78,65,30.42,30.16,17,12,29,0.00
2012-1-20,19,16,13,13,10,6,83,76,71,30.62,30.28,8,3,19,0.00
2012-1-21,26,16,6,21,12,4,90,86,71,30.71,30.40,7,3,14,0.03
2012-1-22,31,20,6,28,15,3,100,82,67,30.79,30.57,18,8,28,0.00
2012-1-23,45,39,31,43,37,28,92,90,87,30.58,30.02,21,13,32,0.04
2012-1-24,42,34,31,40,32,27,93,91,85,30.50,30.04,9,2,17,0.04
2012-1-25,31,29,28,27,25,24,92,86,83,30.68,30.50,7,3,17,0.00
2012-1-26,38,32,27,36,30,25,94,92,86,30.54,29.95,11,4,19,0.43
2012-1-27,48,39,32,46,37,30,94,93,88,30.20,29.60,12,7,22,0.36
2012-1-28,40,34,28,32,28,22,92,80,65,30.29,30.05,15,6,25,0.04
2012-1-29,37,31,27,28,23,19,92,73,59,30.37,30.21,11,5,21,0.01
2012-1-30,30,26,24,28,22,18,93,82,67,30.58,30.26,9,4,19,0.09
2012-1-31,54,44,29,42,33,22,77,68,60,30.39,30.17,9,5,16,0.02
2012-2-1,52,45,36,47,39,32,90,79,58,30.36,30.09,11,6,29,0.08
2012-2-2,36,30,26,32,27,24,91,88,84,30.67,30.33,7,3,13,0.00
2012-2-3,35,31,28,31,27,22,92,84,79,30.81,30.65,6,2,13,0.00
2012-2-4,36,32,25,31,27,21,91,84,71,30.65,30.47,6,2,13,0.00
2012-2-5,32,27,24,25,21,17,87,76,71,30.53,30.45,7,1,10,0.00
2012-2-6,50,37,26,31,26,-100,89,68,42,30.47,30.23,8,-6,14,0.00
2012-2-7,38,32,27,33,28,22,96,87,75,30.60,30.28,6,3,12,0.00
2012-2-8,29,26,21,25,22,19,91,86,79,30.61,30.43,4,1,9,0.00
2012-2-9,35,26,21,26,21,18,89,81,68,30.48,30.43,4,1,11,0.00
2012-2-16,37,36,33,35,33,30,94,92,87,30.49,30.23,13,8,23,0.17
2012-2-17,40,36,30,36,31,25,94,82,64,30.36,30.24,10,3,19,0.00
2012-2-18,37,29,25,31,25,21,92,85,79,30.35,30.15,9,2,14,0.03
2012-2-24,40,37,34,37,34,28,93,88,73,29.80,29.56,14,10,28,0.12
2012-2-25,34,29,24,28,24,16,100,82,65,30.45,29.66,13,8,29,0.00
2012-2-26,30,26,22,22,20,18,95,78,68,30.76,30.45,8,3,21,0.00
2012-2-27,50,36,28,34,27,22,79,69,52,30.65,30.31,10,6,22,0.00
2012-2-28,33,30,25,28,24,22,89,79,72,30.77,30.55,8,4,20,0.00
2012-2-29,35,32,28,33,28,24,93,85,69,30.65,29.90,12,7,24,0.10
2012-3-1,38,36,34,36,34,32,94,91,86,30.22,29.86,11,3,20,0.37
2012-3-2,44,38,34,37,34,-100,92,85,74,30.27,29.79,16,3,29,0.20
2012-3-3,48,41,33,43,32,23,92,72,45,29.96,29.64,21,10,37,0.00
2012-3-4,33,28,19,27,24,17,91,83,68,30.11,29.92,8,4,16,0.03
2012-3-5,23,18,15,17,14,11,90,81,64,30.75,30.11,7,3,18,0.01
2012-3-6,38,28,14,26,19,10,90,72,54,30.92,30.72,11,5,20,0.01
2012-3-8,-200,0,200,-100,-100,-100,0,0,100,0.00,40.00,0,-999,29,0.00
2012-3-9,-200,0,200,-100,-100,-100,0,0,100,0.00,40.00,0,-999,29,0.00
2012-3-10,33,18,22,23,-24,-100,88,45,60,30.80,-32.77,9,-372,29,0.04
2012-3-11,62,45,32,38,30,20,77,55,35,30.68,30.55,7,4,14,0.01
2012-3-12,62,52,41,42,36,30,66,55,41,30.58,30.27,9,3,16,0.00
2012-3-13,64,57,51,55,49,42,92,76,60,30.27,30.15,8,4,15,0.17
2012-3-14,57,48,37,46,36,32,89,66,39,30.47,30.27,6,2,16,0.00
2012-3-15,69,57,40,54,43,31,75,60,49,30.47,30.34,7,2,13,0.00
2012-3-16,55,9,50,46,-76,-100,82,13,71,30.50,30.30,6,-832,12,0.00
2012-3-17,70,29,45,53,-28,-100,95,33,44,30.59,30.45,6,-515,11,0.00
2012-3-18,75,30,52,59,-30,-100,89,31,49,30.49,30.33,9,-550,16,0.00
2012-3-19,74,32,55,61,-23,-100,90,37,59,30.43,30.34,7,-510,11,0.21
2012-3-20,72,31,54,61,-25,-100,92,36,63,30.51,30.41,9,-526,16,0.00
2012-3-21,75,35,55,60,-20,-100,89,34,51,30.56,30.42,5,-490,12,0.00
2012-3-22,73,68,54,60,58,52,91,71,58,30.45,30.34,6,2,10,0.00
2012-3-23,-200,0,200,-100,-100,-100,0,0,100,0.00,40.00,0,-999,6,0.00
2012-3-24,60,28,53,46,-29,-100,76,29,50,30.23,-32.77,10,-499,20,0.00
2012-3-25,50,20,44,48,-40,-100,92,38,85,30.13,30.07,10,-580,15,0.02
2012-3-26,33,15,28,24,-42,-100,76,29,44,30.57,30.09,20,-501,29,0.02
2012-3-27,41,24,23,20,-22,-100,66,31,33,30.71,30.30,9,-324,16,0.00
2012-3-28,69,50,41,52,36,17,91,60,38,30.30,29.80,11,6,24,0.08
2012-3-29,42,37,34,40,34,30,93,89,83,30.37,29.97,10,6,19,0.10
2012-3-30,45,36,29,32,28,24,92,72,51,30.43,30.19,8,3,13,0.08
2012-3-31,40,37,34,37,35,32,93,92,91,30.23,30.12,8,2,15,0.01
2012-4-1,38,36,34,36,34,32,93,92,91,30.22,29.98,4,1,8,0.32
2012-4-9,51,42,37,32,30,28,71,63,41,29.98,29.92,9,7,0,0.00
2012-4-10,48,41,35,34,32,28,90,70,50,30.11,29.92,7,3,0,0.00
2012-4-11,43,39,34,36,34,32,91,83,76,30.28,30.11,8,5,0,0.10
2012-4-12,49,41,32,38,34,28,92,76,53,30.48,30.37,9,3,22,0.00
2012-4-13,57,43,28,37,32,25,91,67,40,30.57,30.46,6,2,13,0.00
2012-4-14,65,51,34,47,36,29,84,60,36,30.50,30.24,7,2,14,0.00
2012-4-15,66,57,51,61,54,47,92,89,74,30.25,30.15,8,3,14,0.01
2012-4-16,85,70,58,61,57,50,87,65,36,30.20,30.00,17,6,28,0.01
2012-4-17,61,49,37,50,39,30,80,68,55,30.59,30.20,8,3,18,0.01
2012-4-18,52,40,30,36,31,27,89,72,49,30.65,30.38,6,1,12,0.00
2012-4-19,70,55,40,52,42,31,87,63,42,30.39,30.20,7,2,14,0.00
2012-4-20,74,63,48,52,48,45,88,60,38,30.22,29.95,14,6,23,0.00
2012-4-21,61,47,36,51,43,35,94,88,66,30.19,29.92,10,4,18,0.48
2012-4-22,40,37,34,38,36,33,100,94,92,30.22,29.95,10,5,22,0.18
2012-4-23,37,34,32,36,32,30,95,95,94,29.95,29.54,7,3,18,0.58
2012-4-24,43,37,33,37,34,32,95,87,69,29.92,29.54,13,7,28,0.03
2012-4-25,47,40,34,38,34,31,90,79,63,30.22,29.93,7,2,20,0.03
2012-4-26,61,45,34,50,39,30,93,79,56,30.19,29.82,11,5,21,0.17
2012-4-27,41,35,31,38,30,26,93,81,68,30.48,30.03,10,6,21,0.01
2012-4-28,48,36,28,33,28,23,88,73,51,30.59,30.46,4,1,10,0.01
2012-4-29,50,39,26,33,26,21,84,62,36,30.58,30.48,11,3,22,0.00
2012-4-30,59,47,31,46,31,24,86,58,31,30.63,30.27,8,4,17,0.21
2012-5-1,57,52,48,54,49,45,96,91,87,30.35,30.17,9,3,15,0.04
2012-5-2,69,58,48,62,54,46,93,88,78,30.36,30.22,9,4,17,0.03
2012-5-3,78,66,56,65,60,54,93,81,53,30.33,30.13,7,2,15,0.02
2012-5-4,73,64,57,65,61,54,94,88,75,30.23,30.13,8,2,15,0.41
2012-5-5,59,52,45,54,48,41,93,86,73,30.36,30.19,7,2,14,0.00
2012-5-6,66,52,38,50,42,36,94,72,48,30.39,30.33,6,1,14,0.00
2012-5-7,65,55,48,58,50,39,93,81,60,30.35,30.13,13,5,27,0.26
2012-5-8,60,55,51,58,53,49,95,93,90,30.14,30.00,11,6,20,0.55
2012-5-9,65,58,49,57,52,47,94,83,55,30.04,29.89,7,1,15,0.03
2012-5-10,53,48,43,48,41,37,93,78,56,30.16,29.86,10,5,22,0.01
2012-5-11,62,52,39,43,39,35,91,64,40,30.40,30.14,11,3,24,0.01
2012-5-12,76,60,40,54,46,37,90,62,39,30.49,30.40,5,1,12,0.00
2012-5-13,72,60,51,59,53,47,90,76,60,30.44,30.35,5,0,9,0.00
2012-5-14,66,59,54,59,55,51,92,88,78,30.37,30.28,7,2,13,0.02
2012-5-15,72,65,58,62,60,56,94,84,67,30.24,30.14,3,1,13,0.00
2012-5-16,76,60,47,59,54,39,94,81,49,30.31,30.05,10,2,22,0.24
2012-5-17,59,50,37,43,39,35,93,70,43,30.46,30.31,6,2,15,0.01
2012-5-19,80,71,55,58,53,48,83,54,37,30.44,30.37,6,2,9,0.00
2012-5-20,84,70,52,60,55,49,90,60,37,30.47,30.36,6,1,12,0.00
2012-5-21,75,67,60,64,57,44,91,71,52,30.39,30.20,8,4,17,0.00
2012-5-22,77,66,60,65,61,58,93,84,59,30.20,30.05,8,2,14,0.00
2012-5-23,75,65,58,64,60,56,94,86,67,30.23,30.11,3,1,8,0.01
2012-5-24,78,69,61,66,63,58,93,82,62,30.34,30.23,10,4,23,0.01
2012-5-25,81,72,63,69,65,59,91,78,62,30.32,30.23,12,8,25,0.00
2012-5-26,79,70,60,66,57,51,89,63,43,30.41,30.27,6,2,15,0.00
2012-5-27,79,68,54,64,56,50,89,66,44,30.42,30.20,5,1,10,0.00
2012-5-28,86,73,59,75,66,57,92,80,65,30.27,30.05,7,2,16,0.33
2012-5-29,86,78,73,73,71,69,88,80,61,30.05,29.87,9,3,18,0.33
2012-5-30,64,63,63,62,61,61,93,93,93,29.98,29.97,1,0,3,0.00
2012-6-1,64,60,55,58,54,48,88,80,75,30.22,29.95,10,5,21,0.05
2012-6-2,62,58,55,53,50,48,91,75,62,30.00,29.94,6,3,20,0.00
2012-6-5,63,58,52,54,52,50,93,81,70,30.23,30.18,5,2,12,0.00
2012-6-6,72,63,52,56,53,50,94,71,50,30.26,30.18,4,1,11,0.01
2012-6-7,72,61,48,58,53,46,93,76,52,30.26,30.17,6,1,12,0.01
2012-6-8,77,65,53,60,55,50,91,71,49,30.21,30.09,7,1,16,0.00
2012-6-9,71,64,59,64,60,54,93,85,67,30.23,30.10,3,0,11,0.64
2012-6-10,83,72,62,71,65,60,93,79,59,30.34,30.22,3,0,8,0.15
2012-6-11,84,74,67,70,67,64,90,78,58,30.35,30.24,11,4,21,0.15
2012-6-12,70,66,62,65,63,57,94,91,84,30.24,30.03,11,7,21,0.75
2012-6-13,65,58,51,57,52,48,92,83,68,30.45,30.18,7,3,18,0.75
2012-6-14,74,62,48,59,54,46,94,77,52,30.54,30.44,7,2,15,0.00
2012-6-15,78,68,55,65,57,50,88,71,51,30.56,30.47,5,1,9,0.00
2012-6-16,80,71,61,65,61,57,89,72,54,30.54,30.37,5,1,12,0.00
2012-6-17,77,69,61,62,59,56,86,72,56,30.38,30.18,12,6,21,0.00
2012-6-18,68,64,61,62,59,56,88,83,75,30.29,30.19,11,8,20,0.00
2012-6-19,82,73,62,76,68,59,93,85,74,30.34,30.25,8,3,17,1.28
2012-6-20,91,79,70,75,71,67,92,77,57,30.32,30.19,3,0,11,1.28
2012-6-21,90,78,65,73,69,62,92,73,51,30.21,30.00,4,1,12,0.00
2012-6-22,78,71,66,66,64,60,91,78,55,30.12,30.03,5,1,13,0.00
2012-6-23,75,68,57,62,59,55,93,73,58,30.28,30.17,5,2,14,0.00
2012-6-24,77,66,54,63,58,52,93,78,52,30.29,30.08,5,1,14,0.00
2012-6-25,65,61,53,60,56,50,92,82,64,30.10,30.01,10,4,24,0.08
2012-6-26,69,59,53,54,52,49,92,79,51,30.09,30.03,9,3,20,0.08
2012-6-27,75,62,52,57,53,49,93,74,43,30.11,30.02,10,3,22,0.00
2012-6-28,82,77,69,69,64,60,85,66,50,30.01,29.92,2,0,7,0.00
2012-6-29,87,78,70,68,63,57,85,63,37,29.95,29.87,5,1,14,0.00
2012-6-30,86,74,61,66,61,58,91,67,44,30.03,29.92,6,1,13,0.00
2012-7-1,75,69,64,64,61,59,90,77,62,30.09,30.02,4,0,8,0.00
2012-7-2,81,75,62,63,60,57,85,60,46,30.24,30.18,5,2,13,0.00
2012-7-3,84,72,59,67,62,56,91,73,42,30.23,30.03,6,1,12,0.10
2012-7-4,89,77,68,74,69,65,92,79,57,30.09,29.96,5,1,13,0.10
2012-7-5,81,72,59,71,62,53,91,74,39,30.16,30.01,7,2,16,0.00
2012-7-6,91,74,55,76,64,53,92,74,52,30.20,30.10,6,1,16,0.00
2012-7-7,67,67,67,62,62,62,83,83,83,30.14,30.14,0,0,0,0.00
2012-7-8,80,72,61,70,64,58,94,76,57,30.18,30.14,7,2,18,0.01
2012-7-9,77,67,57,63,56,52,93,70,43,30.27,30.17,5,1,16,0.01
2012-7-10,80,68,57,61,56,52,88,67,46,30.35,30.25,5,1,12,0.00
2012-7-11,83,72,54,62,56,52,91,60,36,30.43,30.35,5,1,14,0.00
2012-7-12,88,75,60,71,62,55,84,66,41,30.41,30.32,4,1,9,0.00
2012-7-13,87,75,66,70,65,62,87,72,45,30.42,30.34,6,1,11,0.00
2012-7-14,86,76,68,67,65,62,86,70,48,30.42,30.29,6,2,12,0.00
2012-7-15,78,72,69,73,68,65,92,87,77,30.34,30.16,3,1,10,0.47
2012-7-16,83,73,66,72,67,63,93,83,61,30.18,30.08,6,1,13,0.47
2012-7-17,93,81,68,72,67,62,85,64,46,30.10,29.93,7,2,19,0.00
2012-7-18,81,74,63,71,67,60,91,79,60,30.18,29.97,6,1,13,0.00
2012-7-19,77,68,58,67,61,55,93,79,59,30.24,30.17,6,1,14,0.02
2012-7-20,68,64,60,64,60,56,93,89,81,30.32,30.19,2,0,6,0.09
2012-7-21,77,67,58,64,60,56,94,80,54,30.36,30.27,5,1,14,0.09
2012-7-22,81,71,61,68,64,58,92,79,58,30.35,30.26,6,2,13,0.23
2012-7-23,88,78,66,74,70,64,92,77,57,30.28,29.91,9,2,15,0.29
2012-7-24,80,74,61,70,65,54,89,74,55,30.09,29.91,12,3,23,0.29
2012-7-25,78,68,56,64,58,53,91,72,53,30.21,29.98,3,0,8,0.00
2012-7-26,79,69,62,72,66,60,92,88,70,30.01,29.78,7,2,17,0.12
2012-7-27,69,68,66,67,66,64,93,93,92,29.94,29.81,3,1,7,0.03
2012-7-31,81,72,64,71,66,62,92,82,69,29.44,29.44,9,4,19,0.22
2012-8-1,79,69,62,70,65,60,92,87,70,29.44,29.44,5,1,12,0.22
2012-8-2,83,72,59,70,65,57,94,80,59,29.44,29.44,4,1,10,0.01
2012-8-3,84,75,66,72,67,62,89,77,60,29.44,29.44,5,1,8,0.01
2012-8-4,88,78,71,75,70,65,90,77,58,29.44,29.44,10,4,20,0.00
2012-8-5,80,75,71,74,71,68,91,88,84,29.44,29.44,12,5,20,0.10
2012-8-6,74,67,60,68,60,57,92,81,63,29.44,29.44,5,1,14,0.10
2012-8-7,60,58,56,57,55,54,93,92,90,29.44,29.44,1,0,4,0.00
2012-8-10,73,70,67,69,67,64,93,89,81,29.44,29.44,7,3,16,0.21
2012-8-11,78,70,64,68,63,58,93,80,57,29.44,29.44,11,3,17,0.27
2012-8-12,75,65,59,66,61,56,92,86,69,29.44,29.44,6,1,12,0.06
2012-8-13,78,67,60,66,61,58,93,83,59,29.44,29.44,2,0,7,0.06
2012-8-14,79,68,63,68,63,60,93,84,63,29.44,29.44,6,1,15,0.22
2012-8-15,75,67,58,66,63,56,94,87,70,29.44,29.44,4,1,13,0.23
2012-8-16,58,57,57,56,55,54,93,92,92,29.44,29.44,0,0,4,0.00
2012-8-17,71,67,61,65,62,58,92,85,75,29.44,29.44,4,1,12,0.00
2012-8-18,71,62,51,59,54,49,93,76,50,29.44,29.44,5,1,12,0.00
2012-8-19,73,61,50,58,53,48,93,77,47,29.44,29.44,4,1,9,0.00
2012-8-20,73,62,54,62,57,51,92,83,64,29.44,29.44,6,1,13,0.00
2012-8-21,74,62,52,59,54,50,94,77,46,29.44,29.44,3,0,12,0.00
2012-8-22,79,66,53,62,56,50,92,74,48,29.44,29.44,3,0,8,0.00
2012-8-23,80,68,55,62,58,52,93,74,45,29.44,29.44,2,0,11,0.00
2012-8-24,83,70,57,67,60,54,91,72,46,29.44,29.44,3,0,8,0.00
2012-8-25,83,73,63,66,62,59,88,71,52,29.44,29.44,5,1,14,0.00
2012-8-26,82,72,64,67,62,59,89,72,54,29.44,29.44,9,2,16,0.00
2012-8-27,79,70,65,70,66,62,92,85,69,29.44,29.44,9,2,17,0.03
2012-8-28,77,68,60,67,63,55,93,84,61,29.44,29.44,7,2,19,0.08
2012-9-4,77,72,68,72,69,66,93,90,84,29.44,29.44,11,6,24,1.11
2012-9-5,77,68,63,67,64,60,93,87,69,29.44,29.44,5,1,10,0.00
2012-9-6,83,69,63,71,64,60,92,85,64,29.44,29.44,9,1,32,1.33
2012-9-7,78,69,61,68,64,59,94,83,64,29.44,29.44,6,1,11,0.01
2012-9-8,72,65,53,67,62,50,92,88,79,29.44,29.44,15,6,35,0.39
2012-9-9,68,57,50,58,52,47,94,84,62,29.44,29.44,6,1,15,0.00
2012-9-10,62,55,47,52,48,44,92,78,53,29.44,29.44,8,2,17,0.00
2012-9-11,71,57,43,55,48,42,93,74,46,29.44,29.44,4,0,11,0.00
2012-9-12,77,64,54,59,54,50,87,71,46,29.44,29.44,9,2,15,0.00
2012-9-13,80,68,58,63,58,53,85,72,52,29.44,29.44,6,2,14,0.00
2012-9-14,79,66,56,65,60,53,92,80,57,29.44,29.44,11,3,20,0.27
2012-9-15,64,56,51,54,51,49,92,84,67,29.44,29.44,5,1,12,0.00
2012-9-16,66,56,46,54,51,44,93,83,65,29.44,29.44,3,0,10,0.01
2012-9-17,72,62,53,58,53,49,89,73,50,29.44,29.44,11,3,19,0.00
2012-9-18,68,62,52,65,59,49,93,90,76,29.44,29.44,17,5,27,2.29
2012-9-19,56,51,44,50,46,42,93,85,72,29.44,29.44,6,2,14,0.01
2012-9-20,66,56,45,52,47,42,90,75,56,29.44,29.44,13,7,25,0.00
2012-9-21,68,61,55,62,56,51,91,85,78,29.44,29.44,10,5,20,0.12
2012-9-22,68,59,50,61,55,46,92,87,76,29.44,29.44,14,5,28,0.38
2012-9-23,59,50,43,48,43,39,92,78,52,29.44,29.44,5,2,19,0.04
2012-9-24,59,49,39,46,42,37,92,78,55,29.44,29.44,7,2,16,0.00
2012-9-25,67,56,46,51,45,40,87,69,46,29.44,29.44,12,6,22,0.08
2012-9-26,63,58,53,60,55,51,92,91,87,29.44,29.44,7,3,14,0.92
2012-9-27,47,47,47,44,44,44,91,91,91,29.44,29.44,0,0,1,0.00
2012-10-1,61,56,50,55,52,48,92,85,78,29.44,29.44,4,1,12,0.01
2012-10-2,64,58,51,60,55,49,93,89,85,29.44,29.44,9,4,19,0.01
2012-10-3,69,63,59,66,61,57,94,93,89,29.44,29.44,5,1,9,0.05
2012-10-4,70,62,56,62,58,53,94,86,66,29.44,29.44,4,0,9,0.00
2012-10-5,72,62,55,63,57,52,92,86,72,29.44,29.44,6,1,12,0.01
2012-10-6,62,51,41,58,46,36,94,84,63,29.44,29.44,7,2,18,0.37
2012-10-7,49,44,41,42,40,37,90,84,71,29.44,29.44,7,2,13,0.00
2012-10-8,51,45,36,42,38,33,93,77,53,29.44,29.44,6,3,12,0.00
2012-10-9,59,48,37,46,41,34,90,78,57,29.44,29.44,8,3,17,0.00
2012-10-10,55,48,44,48,44,38,92,85,68,29.44,29.44,13,5,23,0.02
2012-10-11,53,47,40,39,36,34,84,67,52,29.44,29.44,9,4,17,0.00
2012-10-12,50,41,31,42,34,27,92,76,55,29.44,29.44,10,4,21,0.17
2012-10-13,48,38,29,32,29,26,91,72,47,29.44,29.44,11,4,17,0.00
2012-10-24,59,27,54,57,-27,-100,95,44,94,30.48,30.48,2,0,0,0.00
2012-10-25,69,61,56,62,58,54,95,90,77,0.00,40.00,10,6,0,0.00
2012-10-26,66,60,52,60,56,49,91,87,77,0.00,40.00,12,8,0,0.00
2012-10-27,57,51,47,54,49,45,94,93,90,0.00,40.00,6,1,0,0.02
2012-10-28,47,45,43,45,43,42,95,95,93,0.00,40.00,4,2,0,0.16
2012-10-29,49,48,47,48,47,46,96,96,96,21.33,21.33,12,9,25,0.27
2012-10-30,51,44,41,46,42,39,93,91,83,21.33,21.33,12,5,25,0.33
2012-10-31,42,40,39,39,38,37,94,92,85,21.33,21.33,8,5,14,0.05
2012-11-1,43,41,40,41,40,38,94,93,92,21.33,21.33,7,3,14,0.49
2012-11-2,41,38,34,39,35,33,94,91,85,21.33,21.33,6,4,19,0.07
2012-11-3,36,35,34,35,33,32,94,94,92,21.33,21.33,8,4,16,0.17
2012-11-4,36,33,32,34,31,29,94,93,90,21.33,21.33,6,3,14,0.06
2012-11-5,33,32,30,31,29,26,94,89,81,21.33,21.33,6,2,12,0.01
2012-11-6,35,32,30,28,27,25,87,82,70,21.33,21.33,5,1,11,0.01
2012-11-7,35,32,26,28,25,21,87,74,65,21.33,21.33,6,2,13,0.01
2012-11-8,36,31,28,31,27,25,91,88,79,21.33,21.33,10,6,22,0.00
2012-11-9,42,42,42,40,40,40,91,91,91,0.00,40.00,0,0,1,0.00
2012-11-10,49,45,40,44,41,38,93,87,76,21.33,21.33,9,2,18,0.03
2012-11-11,66,56,48,50,44,41,78,65,51,21.33,21.33,10,6,17,0.00
2012-11-12,62,57,41,54,49,39,92,76,64,0.00,40.00,18,12,0,0.60
2012-11-13,41,36,34,39,31,27,93,84,75,0.00,40.00,5,2,0,0.23
2012-11-14,39,34,29,30,28,26,91,81,66,0.00,40.00,3,1,0,0.01
2012-11-15,42,34,27,30,28,24,90,77,58,21.33,21.33,7,1,11,0.00
2012-11-16,42,32,26,34,28,-100,93,86,71,21.33,21.33,4,1,9,0.00
2012-11-17,47,38,29,38,32,-100,94,83,67,0.00,-32.77,3,-6,6,0.00
2012-11-18,47,36,27,36,31,25,93,83,64,0.00,-32.77,6,2,11,0.01
2012-11-19,50,38,31,37,32,28,91,80,56,0.00,-32.77,8,2,14,0.00
2012-11-20,47,39,33,39,34,30,92,83,68,0.00,-32.77,3,0,5,0.00
2012-12-14,42,38,35,35,33,32,88,83,76,28.92,28.92,4,1,10,0.00
2012-12-15,40,36,30,34,32,27,93,85,77,28.92,28.92,10,3,18,0.00
2012-12-16,45,41,38,42,38,33,94,88,79,28.92,28.92,19,12,32,0.11
2012-12-17,43,41,39,42,39,38,94,94,94,28.92,28.92,12,8,19,0.14
2012-12-18,43,43,43,41,41,41,94,94,94,28.92,28.92,6,6,13,0.00
2012-12-19,39,36,30,35,31,26,93,83,71,28.92,28.92,7,4,16,0.14
2012-12-20,37,33,27,35,28,24,92,81,68,28.92,28.92,17,8,33,0.02
2012-12-21,39,34,31,37,33,30,95,94,90,28.92,28.92,17,5,33,0.70
2012-12-22,31,27,24,30,25,23,95,91,83,28.92,28.92,13,8,30,0.00
2012-12-23,34,31,28,28,26,24,94,83,67,28.92,28.92,8,3,18,0.06
2012-12-24,30,28,27,26,23,21,93,81,73,28.92,28.92,8,2,17,0.02
2012-12-25,29,26,20,28,24,18,94,92,88,28.92,28.92,8,3,15,0.02
2012-12-26,28,21,11,26,19,8,94,90,80,28.92,28.92,11,3,20,0.00
2012-12-27,26,22,19,25,21,17,95,94,94,28.92,28.92,12,5,20,0.00
2012-12-28,25,24,22,24,22,20,95,95,94,28.92,28.92,5,2,15,0.00
2012-12-29,27,25,22,26,24,21,95,95,94,28.92,28.92,8,2,16,0.00
2012-12-30,25,22,20,23,21,18,95,93,91,28.92,28.92,9,4,21,0.00
2012-12-31,33,27,22,29,24,20,93,87,76,28.92,28.92,11,5,16,0.00
2013-1-1,32,21,3,29,18,0,93,87,80,28.92,28.92,9,3,17,0.00